"Pseudo-MPEC" for C1RNGX2

Created 2020 Jan 16 1:07:03 UT using Find_Orb

Click here for an explanation of pseudo-MPECs

 
 Astrometry: 
     C1RNGX2  C2020 01 14.13954 05 16 08.25 +58 37 14.1    ~1E47 21.5 GVNEOCPG96
     C1RNGX2  C2020 01 14.14471 05 16 07.10 +58 36 43.5    ~1E47 20.8 GVNEOCPG96
     C1RNGX2  C2020 01 14.14990 05 16 06.03 +58 36 12.5    ~1E47 21.3 GVNEOCPG96
     C1RNGX2  C2020 01 14.15506 05 16 04.85 +58 35 42.0    ~1E47 21.2 GVNEOCPG96
     C1RNGX2  C2020 01 14.17783005 15 58.43 +58 33 22.1    ~1E4q 20.4 GVNEOCPH01
     C1RNGX2  C2020 01 14.18085605 15 57.75 +58 33 03.5    ~1E4q 20.5 GVNEOCPH01
     C1RNGX2  C2020 01 14.19147805 15 55.42 +58 31 58.0    ~1E4q 20.7 GVNEOCPH01
     C1RNGX2  C2020 01 14.19883805 15 53.77 +58 31 12.2    ~1E4q 20.6 GVNEOCPH01
     C1RNGX2  C2020 01 14.22659 05 15 49.04 +58 28 23.9    ~1E67 21.7 GVNEOCPI52
     C1RNGX2  C2020 01 14.22992 05 15 48.24 +58 28 02.6    ~1E67 21.5 GVNEOCPI52
     C1RNGX2  C2020 01 14.23324 05 15 47.56 +58 27 41.0    ~1E67 22.0 GVNEOCPI52
     C1RNGX2  C2020 01 15.22968 05 14 40.99 +56 50 08.2    ~1F6M 21.5 GVNEOCPG96
     C1RNGX2  C2020 01 15.23854 05 14 39.48 +56 49 16.8    ~1F6M       VNEOCPG96
     C1RNGX2  C2020 01 15.23986 05 14 39.21 +56 49 09.7    ~1F6M 21.1 GVNEOCPG96
     C1RNGX2  C2020 01 15.24108 05 14 38.92 +56 49 02.7    ~1F6M 21.0 GVNEOCPG96

Station data:
(G96) Mt. Lemmon Survey  (N32.442754 W110.788720)  US/Arizona.  Observers T.
   A. Pruyne, B. M. Africano, E. J. Christensen, G. A. Farneth, D. C. Fuls,
   A. R. Gibbs, A. D. Grauer, H. Gröller, J. A. Johnson, R. A. Kowalski, S.
   M. Larson, G. J. Leonard, D. Rankin, R. L. Seaman, F. C. Shelly. 1.5-m
   reflector + 10K CCD.
(H01) Magdalena Ridge Observatory, Socorro  (N33.984833 W107.189333)  US/New
   Mexico.  Observers W. H. Ryan, E. V. Ryan. Measurer W. H. Ryan. 2.4-m
   f/8.9 reflector + CCD.
(I52) Steward Observatory, Mt. Lemmon Station  (N32.442547 W110.788920)
   US/Arizona.  Observers T. A. Pruyne, B. M. Africano, E. J. Christensen, G.
   A. Farneth, D. C. Fuls, A. R. Gibbs, A. D. Grauer, H. Gröller, J. A.
   Johnson, R. A. Kowalski, S. M. Larson, G. J. Leonard, D. Rankin, R. L.
   Seaman, F. C. Shelly. 1.0-m reflector + CCD.

Orbital elements:  C1RNGX2
   Perihelion 2019 Sep 28.768737 +/- 0.282 TT = 18:26:58 (JD 2458755.268737)
Epoch 2020 Jan 15.0 TT = JDT 2458863.5   Earth MOID: 0.0161   Ve: 0.0134
M 124.81235299 +/- 0.16             (J2000 ecliptic)          AutoNEOCP
n   1.15320055 +/- 0.0015           Peri.  255.84500 +/- 0.8
a   0.90060181 +/- 0.000781         Node    76.94847 +/- 0.8
e   0.1873217 +/- 0.00181           Incl.    2.34898 +/- 0.048
P   0.85/312.17d           H 26.6   G  0.15   U  8.4  
q 0.73189955 +/- 0.00227    Q 1.06930408 +/- 0.000712
From 15 observations 2020 Jan. 14-15 (26.4 hr); mean residual 0".27
Residuals in arcseconds: 
200114 G96  .21+  .31+    200114 H01  .00   .07-    200114 I52  .08+  .38-    
200114 G96  .17-  .12+    200114 H01  .16+  .06-    200115 G96  .42-  .69+    
200114 G96  .17+  .21-    200114 H01  .00   .12-    200115 G96  .49+  .49-    
200114 G96  .33-  .10-    200114 I52  .14+  .38+    200115 G96  .25+  .07-    
200114 H01  .09+  .03-    200114 I52  .35-  .15+    200115 G96  .31-  .12-    

Ephemerides (geocentric):
Date (UTC) HH   RA              Dec         delta   r     elong  mag " sig PA
---- -- -- --  -------------   -----------  ------ ------ -----  --- ---- ---
2020 01 16 01  05 14 03.892   +55 37 20.65  .04673 1.0173 135.2 21.7 1.03 168
2020 01 16 02  05 14 02.162   +55 33 51.07  .04685 1.0174 135.2 21.7 1.08 168
2020 01 16 03  05 14 00.460   +55 30 22.46  .04697 1.0175 135.2 21.7 1.13 169
2020 01 16 04  05 13 58.785   +55 26 54.79  .04709 1.0176 135.2 21.7 1.18 169
2020 01 16 05  05 13 57.137   +55 23 28.08  .04720 1.0177 135.2 21.7 1.23 169
2020 01 16 06  05 13 55.516   +55 20 02.30  .04732 1.0177 135.2 21.7 1.28 170
2020 01 16 07  05 13 53.922   +55 16 37.46  .04744 1.0178 135.2 21.7 1.34 170
2020 01 16 08  05 13 52.353   +55 13 13.54  .04756 1.0179 135.2 21.7 1.39 170
2020 01 16 09  05 13 50.811   +55 09 50.54  .04768 1.0180 135.2 21.7 1.45 170
2020 01 16 10  05 13 49.295   +55 06 28.46  .04780 1.0181 135.2 21.7 1.50 171
2020 01 16 11  05 13 47.805   +55 03 07.28  .04792 1.0182 135.2 21.7 1.56 171
2020 01 16 12  05 13 46.340   +54 59 47.00  .04803 1.0183 135.2 21.7 1.62 171
2020 01 16 13  05 13 44.900   +54 56 27.62  .04815 1.0184 135.2 21.7 1.68 172
2020 01 16 14  05 13 43.485   +54 53 09.13  .04827 1.0185 135.2 21.7 1.74 172
2020 01 16 15  05 13 42.095   +54 49 51.52  .04839 1.0186 135.2 21.8 1.80 172
2020 01 16 16  05 13 40.729   +54 46 34.79  .04851 1.0186 135.2 21.8 1.86 172
2020 01 16 17  05 13 39.387   +54 43 18.93  .04863 1.0187 135.2 21.8 1.92 172
2020 01 16 18  05 13 38.070   +54 40 03.93  .04875 1.0188 135.2 21.8 1.99 173
2020 01 16 19  05 13 36.776   +54 36 49.80  .04887 1.0189 135.2 21.8 2.05 173
2020 01 16 20  05 13 35.507   +54 33 36.51  .04899 1.0190 135.2 21.8 2.12 173
2020 01 16 21  05 13 34.260   +54 30 24.08  .04910 1.0191 135.2 21.8 2.18 173
2020 01 16 22  05 13 33.037   +54 27 12.48  .04922 1.0192 135.2 21.8 2.25 173
2020 01 16 23  05 13 31.837   +54 24 01.73  .04934 1.0193 135.2 21.8 2.32 174
2020 01 17 00  05 13 30.659   +54 20 51.80  .04946 1.0194 135.2 21.8 2.39 174
2020 01 17 01  05 13 29.505   +54 17 42.70  .04958 1.0194 135.2 21.8 2.46 174
2020 01 17 02  05 13 28.372   +54 14 34.41  .04970 1.0195 135.2 21.8 2.53 174
2020 01 17 03  05 13 27.263   +54 11 26.94  .04982 1.0196 135.2 21.8 2.60 174
2020 01 17 04  05 13 26.175   +54 08 20.28  .04994 1.0197 135.2 21.8 2.67 174
2020 01 17 05  05 13 25.109   +54 05 14.43  .05006 1.0198 135.2 21.8 2.74 174
2020 01 17 06  05 13 24.065   +54 02 09.37  .05018 1.0199 135.2 21.8 2.81 175
2020 01 17 07  05 13 23.042   +53 59 05.10  .05030 1.0200 135.2 21.8 2.89 175
2020 01 17 08  05 13 22.041   +53 56 01.62  .05042 1.0201 135.2 21.8 2.96 175
2020 01 17 09  05 13 21.061   +53 52 58.93  .05054 1.0202 135.2 21.9 3.04 175
2020 01 17 10  05 13 20.102   +53 49 57.01  .05066 1.0202 135.1 21.9 3.12 175
2020 01 17 11  05 13 19.164   +53 46 55.86  .05078 1.0203 135.1 21.9 3.19 175
2020 01 17 12  05 13 18.247   +53 43 55.48  .05090 1.0204 135.1 21.9 3.27 175
2020 01 17 13  05 13 17.350   +53 40 55.86  .05102 1.0205 135.1 21.9 3.35 175
2020 01 17 14  05 13 16.474   +53 37 57.00  .05114 1.0206 135.1 21.9 3.43 176
2020 01 17 15  05 13 15.618   +53 34 58.89  .05126 1.0207 135.1 21.9 3.51 176
2020 01 17 16  05 13 14.782   +53 32 01.52  .05138 1.0208 135.1 21.9 3.59 176
2020 01 17 17  05 13 13.966   +53 29 04.90  .05150 1.0209 135.1 21.9 3.67 176
2020 01 17 18  05 13 13.170   +53 26 09.02  .05162 1.0209 135.1 21.9 3.75 176
2020 01 17 19  05 13 12.393   +53 23 13.87  .05174 1.0210 135.1 21.9 3.83 176
2020 01 17 20  05 13 11.636   +53 20 19.44  .05186 1.0211 135.1 21.9 3.91 176
2020 01 17 21  05 13 10.899   +53 17 25.74  .05198 1.0212 135.1 21.9 4.00 176
2020 01 17 22  05 13 10.180   +53 14 32.76  .05210 1.0213 135.1 21.9 4.08 176
2020 01 17 23  05 13 09.481   +53 11 40.50  .05222 1.0214 135.1 21.9 4.16 176
2020 01 18 00  05 13 08.801   +53 08 48.94  .05235 1.0215 135.1 21.9 4.25 176